[Iaude] MPEC R26: 2023 RG [a=1.44,e=0.41,i=14.2,H=27.4]

mpec at marsden.cfa.harvard.edu mpec at marsden.cfa.harvard.edu
Wed Sep 6 17:48:06 EDT 2023


M.P.E.C. 2023-R26                             Issued 2023 September 6, 21:46 UT

     The Minor Planet Electronic Circulars contain information on unusual
         minor planets, routine data on comets and natural satellites,
         and occasional editorial announcements.  They are published
    on behalf of Division F of the International Astronomical Union by the
          Minor Planet Center, Smithsonian Astrophysical Observatory,
                          Cambridge, MA 02138, U.S.A.
			  
             Prepared using the Tamkin Foundation Computer Network

                              MPC at CFA.HARVARD.EDU
            URL https://www.minorplanetcenter.net/    ISSN 1523-6714

                                    2023 RG                                     


Observations:
     K23R00G  C2023 09 05.42012922 16 00.939+05 08 05.71         20.02GVER026F51
     K23R00G  C2023 09 05.43440322 16 08.183+05 03 12.76         20.21GVER026F51
     K23R00G*1C2023 09 06.21992422 26 35.538-00 30 58.72               VER026G96
     K23R00G 1C2023 09 06.22553822 26 40.200-00 33 53.64               VER026G96
     K23R00G 1C2023 09 06.23115322 26 44.927-00 36 52.09               VER026G96
     K23R00G 1C2023 09 06.23676822 26 49.582-00 39 47.84         19.37GVER026G96
     K23R00G 1C2023 09 06.45260522 30 04.745-02 40 45.95         19.45GVER026G96
     K23R00G 1C2023 09 06.45276522 30 04.892-02 40 51.74         19.98GVER026G96
     K23R00G 1C2023 09 06.45292722 30 05.047-02 40 57.61         19.55GVER026G96
     K23R00G 1C2023 09 06.45308822 30 05.231-02 41 03.48         18.92GVER026G96
     K23R00G 1C2023 09 06.82636622 38 24.790-06 52 57.10               VER026246
     K23R00G 1C2023 09 06.82664122 38 25.150-06 53 10.40               VER026246
     K23R00G 1C2023 09 06.82686722 38 25.410-06 53 20.10         18.7 GVER026246
     K23R00G 1C2023 09 06.82709322 38 25.710-06 53 30.70               VER026246
     K23R00G 1C2023 09 06.82731822 38 26.050-06 53 40.30               VER026246
     K23R00G 1C2023 09 06.82754522 38 26.340-06 53 50.00               VER026246
     K23R00G pC2023 09 06.83272722 38 34.20 -06 57 26.0          18.8 GVER026L01
     K23R00G KC2023 09 06.83386022 38 35.71 -06 58 17.9          18.9 GVER026L01
     K23R00G KC2023 09 06.83499222 38 37.22 -06 59 09.1          18.9 GVER026L01
     K23R00G KC2023 09 06.83612622 38 38.70 -07 00 00.7          19.0 GVER026L01
     K23R00G KC2023 09 06.83725822 38 40.15 -07 00 52.1          19.0 GVER026L01
     K23R00G KB2023 09 06.89101522 39 56.28 -07 42 10.7          19.1 GVER026I93
     K23R00G KB2023 09 06.89375522 39 59.98 -07 44 19.3          18.4 GVER026I93
     K23R00G KB2023 09 06.89645722 40 03.68 -07 46 27.1          18.5 GVER026I93

Observer details:
246 Klet Observatory-KLENOT.  Observers M. Tichy, J. Ticha, M. Janda, M.
    Honkova.  Measurer M. Tichy.  1.06-m f/2.7 Reflector + 2048x2048 CCD.
F51 Pan-STARRS 1, Haleakala.  Observers J. Bulger, K. Chambers, T. Lowe, P.
    Minguez, A. Schultz, I. Smith.  Measurers S. Chastel, J. Fairlamb, M.
    Huber, Y. Ramanjooloo, R. Wainscoat, R. Weryk.  1.8-m Ritchey-Chretien +
    CCD.
G96 Mt. Lemmon Survey.  Observer A. R. Gibbs.  Measurers E. J. Christensen, D.
    Fay, J. B. Fazekas, D. C. Fuls, A. R. Gibbs, A. D. Grauer, H. Groeller, J.
    K. Hogan, R. A. Kowalski, S. M. Larson, G. J. Leonard, D. Rankin, R. L.
    Seaman, A. Serrano, F. C. Shelly, K. W. Wierzchos.  1.5-m reflector + 10K
    CCD.
I93 St Pardon de Conques.  Observer F. Losse.  0.40-m f/3.7 reflector + CMO.
L01 Visnjan Observatory, Tican.  Observers K. Korlevic, I. Lyon.  Measurer K.
    Korlevic.  1.0-m f/2.9 reflector + CCD.

Orbital elements:
2023 RG                                                  Earth MOID = 0.0110 AU
Epoch 2023 Sept. 13.0 TT = JDT 2460200.5                MPC                     
M 334.65069              (2000.0)            P               Q                  
n   0.57282618     Peri.  245.71548     +0.64321638     -0.76255840             
a   1.4358888      Node   163.66168     +0.76086542     +0.62644674             
e   0.4075768      Incl.   14.22342     +0.08577010     +0.16145947             
P   1.72           H   27.41          G   0.15           U   9                  
Residuals in seconds of arc
230905 F51  0.0   0.1-    230906 G96  0.3-  0.3+    230906 L01  0.7-  0.5+
230905 F51  0.0   0.1+    230906 G96  0.0   0.2+    230906 L01  0.2-  0.0
230906 G96  0.2+  0.8-    230906 246  0.0   0.1+    230906 L01  0.2+  0.3+
230906 G96  0.0   0.3+    230906 246  0.0   0.8-    230906 L01  0.2+  0.2+
230906 G96  0.7+  1.6-    230906 246  0.5-  0.3-    230906 L01  0.2-  0.3+
230906 G96  0.2+  0.2-    230906 246  0.4-  0.7-    230906 I93  0.1-  0.5-
230906 G96  0.1+  0.5+    230906 246  0.2+  0.1-    230906 I93  0.1-  0.1-
230906 G96  0.1-  0.4+    230906 246  0.1+  0.5+    230906 I93  0.7+  0.4-

Ephemeris:
2023 RG                  a,e,i = 1.44, 0.41, 14                  q = 0.8507
Date    TT    R. A. (2000) Decl.     Delta      r    Elong.  Phase     V
2023 08 07    21 40 15.3 +21 09 34   0.2489  1.2184   141.3    31.4    26.2
...
2023 08 22    21 43 13.2 +21 32 27   0.1311  1.1228   146.1    30.2    24.6
...
2023 08 30    21 49 34.6 +18 42 38   0.07211 1.0730   150.2    27.9    23.1
...
2023 09 05    22 12 00.4 +07 19 02   0.02977 1.0368   162.3    17.2    20.8
2023 09 06    22 23 07.3 +01 20 32   0.02321 1.0309   168.4    11.4    20.0
2023 09 07    22 42 27.9 -09 03 02   0.01721 1.0251   174.8     5.1    19.1
...
2023 09 13    08 39 58.9 -43 59 48   0.03186 0.9910    60.3   118.1    24.6
...
2023 09 21    09 17 47.3 -32 39 28   0.08805 0.9492    49.3   126.7    27.4
...
2023 10 06    09 36 46.1 -27 45 58   0.1968  0.8869    50.2   120.0    28.5

A. U. Tomatic                (C) Copyright 2023 MPC           M.P.E.C. 2023-R26





More information about the Iaude mailing list